Regional Weather Roundup
Issued by NWS Sterling, VA

Home | Current Version | Previous Version | Text Only | Print | Product List | Glossary On
Versions: 1 2 3 4 5 6 7 8 9 10 11 12 13 14 15 16 17 18 19 20 21 22 23 24 25 26 27
000
ASUS41 KLWX 122211
RWRLWX

REGIONAL WEATHER ROUNDUP
NATIONAL WEATHER SERVICE BALTIMORE MD/WASHINGTON DC
500 PM EST TUE DEC 12 2017

Note: "FAIR" indicates few or no clouds below 12,000 feet
with no significant weather and/or obstructions to visibility.
 TC=TEMPERATURE CELSIUS

 * =Non NWS site. Station does not report precipitation (e.g. rain,
    snow, etc.), thunder, or fog.

DCZ001-MDZ009-015-VAZ040>042-051-053>054-122300-
WASHINGTON METRO

CITY           SKY/WX    TMP DP  RH WIND       PRES   REMARKS
WASHINGTON NAT CLOUDY    41  21  44 NW17G32   29.59R
DULLES         CLOUDY    37  20  50 NW23G32   29.60R WCI  26
ANDREWS AFB    CLOUDY    40  22  48 NW20G29   29.56R
FT BELVOIR     CLOUDY    40  22  49 NW22G28   29.59R
QUANTICO       CLOUDY    41  24  51 NW18G28   29.62R
COLLEGE PARK*  CLOUDY    39  20  45 NW9G24    29.57R
LEESBURG*      CLOUDY    37  23  56 NW29G37   29.60S WCI  25
MANASSAS*      CLOUDY    38  21  50 NW22      29.61R WCI  27
GAITHERSBURG*  CLOUDY    36  18  48 NW13G24   29.59R WCI  27

$$

MDZ006>007-011-014-122300-
BALTIMORE METRO

CITY           SKY/WX    TMP DP  RH WIND       PRES   REMARKS
BWI AIRPORT    CLOUDY    39  21  48 NW16      29.55R
MD SCIENCE CTR   N/A     42  19  39 MISG      29.55R
MARTIN STATE   CLOUDY    43  25  49 W21G29    29.57R
ANNAPOLIS      CLOUDY    42  27  55 NW20G31   29.56R
FORT MEADE*    CLOUDY    37  25  60 NW8G26    29.58R

$$

MDZ012-015-019>023-122300-
MARYLAND EASTERN SHORE

CITY           SKY/WX    TMP DP  RH WIND       PRES   REMARKS
OCEAN CITY     CLOUDY    41  39  93 W3        29.53S
SALISBURY      CLOUDY    40  39  97 CALM      29.53R
BAY BRIDGE AP* CLOUDY    43  27  52 NW20G29   29.55R
CAMBRIDGE*     CLOUDY    45  32  61 NW12G23   29.53S
EASTON*        CLOUDY    45  27  49 NW17      29.57R

$$

MDZ017>025-122300-
SOUTHERN MARYLAND

CITY           SKY/WX    TMP DP  RH WIND       PRES   REMARKS
PATUXENT RIVER LGT RAIN  45  31  58 NW16G28   29.54R
ST INIGOES     LGT RAIN  45  36  70 W7        29.54R
LEONARDTOWN*   CLOUDY    43  30  61 NW6       29.56R

$$

MDZ003>005-122300-
NORTH CENTRAL MARYLAND

CITY           SKY/WX    TMP DP  RH WIND       PRES   REMARKS
FREDERICK*     CLOUDY    37  14  38 NW17      29.64R WCI  28
HAGERSTOWN APT FLURRIES  31  18  58 NW24G33   29.63R WCI  17
WESTMINSTER*   CLOUDY    37  19  48 W18G25    29.56R WCI  27

$$

MDZ501>502-122300-
WESTERN MARYLAND

CITY           SKY/WX    TMP DP  RH WIND       PRES   REMARKS
OAKLAND*       CLOUDY    14  10  85 NW17G25   29.54R WCI  -3
CUMBERLAND*    CLOUDY    30  18  59 NW15G25   29.73R WCI  19

$$

VAZ025>031-122300-
SHENANDOAH VALLEY

CITY           SKY/WX    TMP DP  RH WIND       PRES   REMARKS
WINCHESTER*    MOCLDY    32  18  55 NW24G31   29.64R WCI  19
FRONT ROYAL*   MOCLDY    34  19  55 MISG      29.63R
LURAY*         CLOUDY    34  18  51 NW24G32   29.64R WCI  21
NEW MARKET*    CLOUDY    31  17  56 W7G29     29.66R
STAUNTON*      CLOUDY    32  15  49 NW23G31   29.66R WCI  19
WAYNESBORO*    CLOUDY    32  16  52 NW13G28   29.62R WCI  22

$$

WVZ021-048>050-054>055-122300-
EASTERN WEST VIRGINIA PANHANDLE

CITY           SKY/WX    TMP DP  RH WIND       PRES   REMARKS
MARTINSBURG    CLOUDY    33  14  45 W20G25    29.63R WCI  21
PETERSBURG*    HVY SNOW  25  21  87 NW12G22   29.72R VSB<1/4 WCI  14

$$

VAZ036>039-050-122300-
CENTRAL FOOTHILLS

CITY           SKY/WX    TMP DP  RH WIND       PRES   REMARKS
CHARLOTTESVILL CLOUDY    40  19  43 NW15G29   29.62R
CULPEPER*      CLOUDY    39  24  55 N15       29.63R
ORANGE*        CLOUDY    39  27  60 N13G21    29.60R
GORDONSVILLE*  CLOUDY    41  22  47 NW3       29.60R
WARRENTON*     CLOUDY    38  20  47 NW13G23   29.62R

$$

VAZ055>057-122300-
NORTH AND CENTRAL PIEDMONT

CITY           SKY/WX    TMP DP  RH WIND       PRES   REMARKS
FREDERICKSBRG* DRIZZLE   39  32  76 NW20G30   29.60R
STAFFORD*      LGT RAIN  37  29  71 NW15      29.65R WCI  28

$$

NCZ024-NYZ072-PAZ021-071-VAZ022-071-122300-
OTHER REGIONAL OBSERVATIONS

CITY           SKY/WX    TMP DP  RH WIND       PRES   REMARKS
NEW YORK CITY  CLOUDY    43  33  68 W8        29.44S
PHILADELPHIA   CLOUDY    44  29  55 W8        29.51R
PITTSBURGH     LGT SNOW  20  15  81 W16G24    29.75R WCI   6
ROANOKE        MOCLDY    32  20  61 NW20G28   29.73R WCI  20
RICHMOND       CLOUDY    47  27  45 W14G28    29.56R
RALEIGH        MOCLDY    49  26  41 W6        29.63R

$$

ANZ530>537-122300-
MARINE OBSERVATIONS

STATION/POSITION TIME  TEMP    WIND        PRES
                       AIR SEA DIR/SP/G
                 (UTC) (F)     (DEG/KT/KT) (MB)
THOMAS PT LIGHT  2200   42 47  330/ 22/ 26   N/A
BALT KEY BRIDGE  2148   42     310/ 20/ 24 1000.4R
COVE POINT       2148   45     330/ 10/ 15 1000.8R
LEWISETTA        2148   46 45  300/  5/  7 1000.3R
SOLOMONS ISLAND  2148          320/ 12/ 19   N/A
PINEY POINT      2142          350/ 17/ 20   N/A

$$





USA.gov is the U.S. government's official web portal to all federal, state and local government web resources and services.